STARLINK-34527

Last updated on Thu Jul 03 2025 00:02:07 GMT+0000 (Coordinated Universal Time)

1 64482U 25133L 25183.58335648 -.01150188 00000+0 -56225-2 0 9996 2 64482 53.1551 210.8072 0001070 58.1877 300.8780 15.83998737 2727
UTC large
Height (km)
Speed (km/s)
/
Latitude / Longitude
Inclination (degrees)
Orbital Period (minutes)
Azimuth
Elevation
Range (km)
Doppler Factor

Next 0 passes for location: London (51.5072 / 0.1276)

Sorry there are no passes over London.